Weather History for Camdenton, MO

Change the Weather History Date:

Monday, January 28, 2013

  Actual Average (KAIZ) Record (KAIZ)
Temperature  
Mean Temperature 64 °F -  
Max Temperature 73 °F 40 °F 73 °F (2013)
Min Temperature 55 °F 23 °F -4 °F (1997)
Degree Days  
Heating Degree Days 1    
Growing Degree Days 14 (Base 50)    
Moisture  
Dew Point 56 °F    
Average Humidity 71    
Maximum Humidity 94    
Minimum Humidity 50    
Precipitation  
Precipitation 0.00 in - - ()
Sea Level Pressure  
Sea Level Pressure 29.88 in    
Wind  
Wind Speed 13 mph (South)    
Max Wind Speed 22 mph    
Max Gust Speed 32 mph    
Visibility 10 miles    
Events      
Averages and records for this station are not official NWS values.
T = Trace of Precipitation, MM = Missing Value Source: NWS Daily Summary

Daily Weather History Graph

Daily Weather History Graph

Search for Another Location

Airport:

Trip Planner

Search our weather history database for the weather conditions in past years. The results will help you decide how hot, cold, wet, or windy it might be!

Date:

Astronomy

Jan. 28, 2013 Rise Set
Actual Time 7:18 AM CST 5:29 PM CST
Civil Twilight 6:50 AM CST 5:57 PM CST
Nautical Twilight 6:18 AM CST 6:29 PM CST
Astronomical Twilight 5:47 AM CST 7:00 PM CST
Moon 7:22 PM CST (1/28) 7:46 AM CST (1/28)
Length of Visible Light 11h 07m
Length of Day
10h 11m
Full, 98% of the Moon is Illuminated
Jan 28
Full
Feb 3
Last Quarter
Feb 10
New
Feb 17
First Quarter
Feb 25
Full

Hourly Weather History & Observations

Time (CST) Temp. Dew Point Humidity Pressure Visibility Wind Dir Wind Speed Gust Speed Precip Events Conditions
12:15 AM 55.4 °F 51.8 °F 88% 29.92 in 10.0 mi South 9.2 mph - N/A   Overcast
12:35 AM 57.2 °F 53.6 °F 88% 29.92 in 10.0 mi South 10.4 mph - N/A   Overcast
12:55 AM 57.2 °F 53.6 °F 88% 29.91 in 10.0 mi SSE 12.7 mph 18.4 mph N/A   Overcast
1:15 AM 57.2 °F 53.6 °F 88% 29.91 in 10.0 mi South 11.5 mph 17.3 mph N/A   Scattered Clouds
1:35 AM 57.2 °F 53.6 °F 88% 29.92 in 10.0 mi SSE 9.2 mph - N/A   Mostly Cloudy
1:55 AM 55.4 °F 53.6 °F 94% 29.92 in 10.0 mi SSE 9.2 mph - N/A   Scattered Clouds
2:15 AM 55.4 °F 53.6 °F 94% 29.91 in 10.0 mi SSE 8.1 mph - N/A   Scattered Clouds
2:35 AM 57.2 °F 53.6 °F 88% 29.91 in 10.0 mi SSE 9.2 mph - N/A   Scattered Clouds
2:55 AM 59.0 °F 53.6 °F 82% 29.91 in 10.0 mi SSE 11.5 mph 16.1 mph N/A   Scattered Clouds
3:15 AM 59.0 °F 53.6 °F 82% 29.91 in 10.0 mi South 11.5 mph 17.3 mph N/A   Mostly Cloudy
3:35 AM 59.0 °F 53.6 °F 82% 29.91 in 10.0 mi South 12.7 mph 17.3 mph N/A   Mostly Cloudy
3:55 AM 59.0 °F 55.4 °F 88% 29.90 in 10.0 mi South 11.5 mph 20.7 mph N/A   Scattered Clouds
4:15 AM 60.8 °F 55.4 °F 82% 29.90 in 10.0 mi South 15.0 mph 21.9 mph N/A   Mostly Cloudy
4:35 AM 60.8 °F 55.4 °F 82% 29.90 in 10.0 mi South 11.5 mph 18.4 mph N/A   Overcast
4:55 AM 62.6 °F 55.4 °F 77% 29.90 in 10.0 mi South 15.0 mph 25.3 mph N/A   Overcast
5:15 AM 60.8 °F 55.4 °F 82% 29.89 in 10.0 mi South 12.7 mph 18.4 mph N/A   Overcast
5:35 AM 62.6 °F 57.2 °F 82% 29.90 in 10.0 mi South 13.8 mph 18.4 mph N/A   Overcast
5:55 AM 62.6 °F 57.2 °F 82% 29.90 in 10.0 mi South 11.5 mph 24.2 mph N/A   Overcast
6:35 AM 62.6 °F 57.2 °F 82% 29.91 in 10.0 mi South 12.7 mph 17.3 mph N/A   Overcast
6:55 AM 62.6 °F 57.2 °F 82% 29.91 in 10.0 mi South 10.4 mph 17.3 mph N/A   Overcast
7:15 AM 62.6 °F 57.2 °F 82% 29.92 in 10.0 mi South 12.7 mph 18.4 mph N/A   Overcast
7:35 AM 62.6 °F 57.2 °F 82% 29.92 in 10.0 mi South 10.4 mph 17.3 mph N/A   Overcast
8:15 AM 62.6 °F 59.0 °F 88% 29.93 in 10.0 mi South 13.8 mph - N/A   Overcast
8:35 AM 62.6 °F 59.0 °F 88% 29.93 in 10.0 mi South 15.0 mph 18.4 mph N/A   Mostly Cloudy
8:55 AM 64.4 °F 59.0 °F 83% 29.93 in 10.0 mi South 11.5 mph 18.4 mph N/A   Mostly Cloudy
9:15 AM 64.4 °F 59.0 °F 83% 29.93 in 10.0 mi South 13.8 mph 20.7 mph N/A   Scattered Clouds
9:35 AM 66.2 °F 59.0 °F 78% 29.93 in 10.0 mi South 16.1 mph 21.9 mph N/A   Mostly Cloudy
9:55 AM 68.0 °F 59.0 °F 73% 29.93 in 10.0 mi South 17.3 mph 24.2 mph N/A   Overcast
10:15 AM 68.0 °F 59.0 °F 73% 29.93 in 10.0 mi South 16.1 mph 24.2 mph N/A   Overcast
10:35 AM 69.8 °F 59.0 °F 68% 29.93 in 10.0 mi South 12.7 mph 21.9 mph N/A   Overcast
10:55 AM 69.8 °F 57.2 °F 64% 29.93 in 10.0 mi South 18.4 mph 24.2 mph N/A   Overcast
11:15 AM 69.8 °F 57.2 °F 64% 29.92 in 10.0 mi SSW 20.7 mph 27.6 mph N/A   Mostly Cloudy
11:35 AM 71.6 °F 57.2 °F 60% 29.92 in 10.0 mi SSW 19.6 mph 32.2 mph N/A   Mostly Cloudy
11:55 AM 71.6 °F 57.2 °F 60% 29.92 in 10.0 mi South 16.1 mph 25.3 mph N/A   Scattered Clouds
12:15 PM 69.8 °F 57.2 °F 64% 29.91 in 10.0 mi SSW 13.8 mph 26.5 mph N/A   Mostly Cloudy
12:35 PM 71.6 °F 57.2 °F 60% 29.91 in 10.0 mi SSW 21.9 mph 26.5 mph N/A   Overcast
12:55 PM 71.6 °F 57.2 °F 60% 29.90 in 10.0 mi South 16.1 mph 23.0 mph N/A   Overcast
1:15 PM 71.6 °F 57.2 °F 60% 29.89 in 10.0 mi SSW 13.8 mph 21.9 mph N/A   Overcast
1:35 PM 71.6 °F 55.4 °F 57% 29.88 in 10.0 mi SSW 20.7 mph 26.5 mph N/A   Overcast
1:55 PM 71.6 °F 55.4 °F 57% 29.87 in 10.0 mi South 18.4 mph 25.3 mph N/A   Overcast
2:15 PM 71.6 °F 55.4 °F 57% 29.86 in 10.0 mi SSW 15.0 mph 21.9 mph N/A   Overcast
2:35 PM 73.4 °F 55.4 °F 53% 29.86 in 10.0 mi South 15.0 mph 23.0 mph N/A   Overcast
2:55 PM 71.6 °F 53.6 °F 53% 29.86 in 10.0 mi South 13.8 mph 26.5 mph N/A   Overcast
3:15 PM 73.4 °F 53.6 °F 50% 29.86 in 10.0 mi South 10.4 mph 23.0 mph N/A   Overcast
3:35 PM 73.4 °F 53.6 °F 50% 29.86 in 10.0 mi South 16.1 mph 24.2 mph N/A   Overcast
3:55 PM 73.4 °F 53.6 °F 50% 29.86 in 10.0 mi South 19.6 mph 26.5 mph N/A   Mostly Cloudy
4:15 PM 71.6 °F 53.6 °F 53% 29.86 in 10.0 mi South 9.2 mph 19.6 mph N/A   Mostly Cloudy
4:35 PM 71.6 °F 53.6 °F 53% 29.86 in 10.0 mi South 13.8 mph 21.9 mph N/A   Mostly Cloudy
4:55 PM 71.6 °F 53.6 °F 53% 29.86 in 10.0 mi South 9.2 mph - N/A   Mostly Cloudy
5:15 PM 71.6 °F 53.6 °F 53% 29.85 in 10.0 mi South 11.5 mph 18.4 mph N/A   Mostly Cloudy
5:35 PM 69.8 °F 53.6 °F 56% 29.85 in 10.0 mi South 10.4 mph 16.1 mph N/A   Mostly Cloudy
5:55 PM 68.0 °F 53.6 °F 60% 29.85 in 10.0 mi SSE 9.2 mph - N/A   Scattered Clouds
6:15 PM 68.0 °F 53.6 °F 60% 29.85 in 10.0 mi SSE 9.2 mph - N/A   Mostly Cloudy
6:35 PM 68.0 °F 53.6 °F 60% 29.85 in 10.0 mi SSE 9.2 mph - N/A   Overcast
6:55 PM 68.0 °F 53.6 °F 60% 29.86 in 10.0 mi SSE 10.4 mph - N/A   Overcast
7:15 PM 68.0 °F 53.6 °F 60% 29.86 in 10.0 mi SSE 10.4 mph - N/A   Overcast
7:35 PM 68.0 °F 53.6 °F 60% 29.85 in 10.0 mi SSE 13.8 mph 17.3 mph N/A   Overcast
7:55 PM 66.2 °F 55.4 °F 68% 29.84 in 10.0 mi SSE 17.3 mph 24.2 mph N/A   Overcast
8:15 PM 68.0 °F 55.4 °F 64% 29.84 in 10.0 mi SSE 16.1 mph 25.3 mph N/A   Overcast
8:35 PM 66.2 °F 55.4 °F 68% 29.84 in 10.0 mi SSE 16.1 mph 21.9 mph N/A   Overcast
8:55 PM 64.4 °F 55.4 °F 73% 29.84 in 10.0 mi SSE 16.1 mph 19.6 mph N/A   Mostly Cloudy
9:15 PM 64.4 °F 55.4 °F 73% 29.82 in 10.0 mi SSE 19.6 mph 25.3 mph N/A   Scattered Clouds
9:35 PM 64.4 °F 55.4 °F 73% 29.83 in 10.0 mi SSE 16.1 mph 28.8 mph N/A   Clear
9:55 PM 64.4 °F 55.4 °F 73% 29.82 in 10.0 mi SSE 15.0 mph 26.5 mph N/A   Clear
10:15 PM 64.4 °F 57.2 °F 77% 29.81 in 10.0 mi SSE 16.1 mph 25.3 mph N/A   Clear
10:35 PM 64.4 °F 57.2 °F 77% 29.81 in 10.0 mi SSE 17.3 mph 20.7 mph N/A   Clear
10:55 PM 64.4 °F 57.2 °F 77% 29.81 in 10.0 mi SSE 15.0 mph 23.0 mph N/A   Scattered Clouds
11:15 PM 64.4 °F 57.2 °F 77% 29.81 in 10.0 mi SSE 19.6 mph 28.8 mph N/A   Scattered Clouds
11:35 PM 64.4 °F 57.2 °F 77% 29.82 in 10.0 mi SSE 18.4 mph 24.2 mph N/A   Scattered Clouds
11:55 PM 64.4 °F 57.2 °F 77% 29.81 in 10.0 mi SSE 19.6 mph 25.3 mph N/A   Mostly Cloudy